contact:dominique.lefevre@mio.osupytheas.fr, maurice.libes@osupytheas.fr, didier.mallarino@osupytheas.fr
Project:EMSO http://www.emso-fr.org/EMSO-France
Depth: 2436.0 m
Title:EMSO Ligure Ouest : Data MII capteur MICROCAT
DateTime_Computer,Latitude,Longitude,Temperature,Conductivity,Pressure,DateTime_Instrument
DateTime_Computer,Latitude,Longitude,degC,S m-1,dbar,DateTime_Instrument
2023-12-21T00:00:20Z,42.805,6.029,13.3030,4.60107,2470.624,2023-12-21T02:02:50Z
2023-12-21T00:03:23Z,42.805,6.029,13.3035,4.60112,2470.646,2023-12-21T02:05:54Z
2023-12-21T00:06:26Z,42.805,6.029,13.3034,4.60110,2470.693,2023-12-21T02:08:57Z
2023-12-21T00:09:29Z,42.805,6.029,13.3027,4.60110,2470.661,2023-12-21T02:12:00Z
2023-12-21T00:12:32Z,42.805,6.029,13.3035,4.60109,2470.67,2023-12-21T02:15:03Z
2023-12-21T00:15:36Z,42.805,6.029,13.3035,4.60111,2470.67,2023-12-21T02:18:06Z
2023-12-21T00:18:39Z,42.805,6.029,13.3034,4.60107,2470.661,2023-12-21T02:21:09Z
2023-12-21T00:21:42Z,42.805,6.029,13.3034,4.60112,2470.684,2023-12-21T02:24:12Z
2023-12-21T00:24:45Z,42.805,6.029,13.3035,4.60109,2470.67,2023-12-21T02:27:15Z
2023-12-21T00:27:48Z,42.805,6.029,13.3032,4.60112,2470.67,2023-12-21T02:30:18Z
2023-12-21T00:30:51Z,42.805,6.029,13.3031,4.60113,2470.67,2023-12-21T02:33:21Z
2023-12-21T00:33:54Z,42.805,6.029,13.3035,4.60111,2470.67,2023-12-21T02:36:24Z
2023-12-21T00:36:57Z,42.805,6.029,13.3033,4.60108,2470.67,2023-12-21T02:39:27Z
2023-12-21T00:40:00Z,42.805,6.029,13.3036,4.60108,2470.67,2023-12-21T02:42:30Z
2023-12-21T00:43:03Z,42.805,6.029,13.3031,4.60107,2470.646,2023-12-21T02:45:34Z
2023-12-21T00:46:06Z,42.805,6.029,13.3035,4.60114,2470.684,2023-12-21T02:48:37Z
2023-12-21T00:49:09Z,42.805,6.029,13.3029,4.60110,2470.693,2023-12-21T02:51:40Z
2023-12-21T00:52:13Z,42.805,6.029,13.3036,4.60109,2470.67,2023-12-21T02:54:43Z
2023-12-21T00:55:16Z,42.805,6.029,13.3029,4.60108,2470.707,2023-12-21T02:57:46Z
2023-12-21T00:58:19Z,42.805,6.029,13.3032,4.60107,2470.707,2023-12-21T03:00:49Z
2023-12-21T01:01:22Z,42.805,6.029,13.3034,4.60107,2470.67,2023-12-21T03:03:52Z
2023-12-21T01:04:25Z,42.805,6.029,13.3034,4.60106,2470.67,2023-12-21T03:06:55Z
2023-12-21T01:07:28Z,42.805,6.029,13.3030,4.60108,2470.684,2023-12-21T03:09:58Z
2023-12-21T01:10:31Z,42.805,6.029,13.3034,4.60106,2470.67,2023-12-21T03:13:01Z
2023-12-21T01:13:34Z,42.805,6.029,13.3031,4.60108,2470.646,2023-12-21T03:16:04Z
2023-12-21T01:16:37Z,42.805,6.029,13.3035,4.60107,2470.67,2023-12-21T03:19:07Z
2023-12-21T01:19:40Z,42.805,6.029,13.3038,4.60107,2470.693,2023-12-21T03:22:10Z
2023-12-21T01:22:43Z,42.805,6.029,13.3037,4.60107,2470.707,2023-12-21T03:25:14Z
2023-12-21T01:25:46Z,42.805,6.029,13.3035,4.60107,2470.707,2023-12-21T03:28:17Z
2023-12-21T01:28:49Z,42.805,6.029,13.3036,4.60108,2470.684,2023-12-21T03:31:20Z
2023-12-21T01:31:53Z,42.805,6.029,13.3033,4.60107,2470.646,2023-12-21T03:34:23Z
2023-12-21T01:34:56Z,42.805,6.029,13.3034,4.60114,2470.646,2023-12-21T03:37:26Z
2023-12-21T01:37:59Z,42.805,6.029,13.3033,4.60108,2470.684,2023-12-21T03:40:29Z
2023-12-21T01:41:02Z,42.805,6.029,13.3034,4.60106,2470.661,2023-12-21T03:43:32Z
2023-12-21T01:44:05Z,42.805,6.029,13.3032,4.60106,2470.693,2023-12-21T03:46:35Z
2023-12-21T01:47:08Z,42.805,6.029,13.3034,4.60106,2470.67,2023-12-21T03:49:38Z
2023-12-21T01:50:11Z,42.805,6.029,13.3036,4.60113,2470.693,2023-12-21T03:52:41Z
2023-12-21T01:53:14Z,42.805,6.029,13.3032,4.60107,2470.61,2023-12-21T03:55:44Z
2023-12-21T01:56:17Z,42.805,6.029,13.3037,4.60107,2470.693,2023-12-21T03:58:47Z
2023-12-21T01:59:20Z,42.805,6.029,13.3036,4.60106,2470.693,2023-12-21T04:01:51Z
2023-12-21T02:02:23Z,42.805,6.029,13.3031,4.60107,2470.67,2023-12-21T04:04:54Z
2023-12-21T02:05:26Z,42.805,6.029,13.3032,4.60107,2470.6,2023-12-21T04:07:57Z
2023-12-21T02:08:30Z,42.805,6.029,13.3032,4.60106,2470.707,2023-12-21T04:11:00Z
2023-12-21T02:11:33Z,42.805,6.029,13.3032,4.60107,2470.693,2023-12-21T04:14:03Z
2023-12-21T02:14:36Z,42.805,6.029,13.3030,4.60108,2470.661,2023-12-21T04:17:06Z
2023-12-21T02:17:39Z,42.805,6.029,13.3033,4.60107,2470.67,2023-12-21T04:20:09Z
2023-12-21T02:20:42Z,42.805,6.029,13.3029,4.60109,2470.67,2023-12-21T04:23:12Z
2023-12-21T02:23:45Z,42.805,6.029,13.3029,4.60107,2470.67,2023-12-21T04:26:15Z
2023-12-21T02:26:48Z,42.805,6.029,13.3033,4.60109,2470.67,2023-12-21T04:29:18Z
2023-12-21T02:29:51Z,42.805,6.029,13.3032,4.60108,2470.707,2023-12-21T04:32:21Z
2023-12-21T02:32:54Z,42.805,6.029,13.3035,4.60108,2470.684,2023-12-21T04:35:24Z
2023-12-21T02:35:57Z,42.805,6.029,13.3034,4.60107,2470.707,2023-12-21T04:38:28Z
2023-12-21T02:39:00Z,42.805,6.029,13.3039,4.60107,2470.684,2023-12-21T04:41:31Z
2023-12-21T02:42:03Z,42.805,6.029,13.3031,4.60109,2470.67,2023-12-21T04:44:34Z
2023-12-21T02:45:06Z,42.805,6.029,13.3032,4.60110,2470.646,2023-12-21T04:47:37Z
2023-12-21T02:48:10Z,42.805,6.029,13.3034,4.60107,2470.661,2023-12-21T04:50:40Z
2023-12-21T02:51:13Z,42.805,6.029,13.3033,4.60108,2470.67,2023-12-21T04:53:43Z
2023-12-21T02:54:16Z,42.805,6.029,13.3034,4.60109,2470.67,2023-12-21T04:56:46Z
2023-12-21T02:57:19Z,42.805,6.029,13.3036,4.60109,2470.693,2023-12-21T04:59:49Z
2023-12-21T03:00:22Z,42.805,6.029,13.3034,4.60115,2470.67,2023-12-21T05:02:52Z
2023-12-21T03:03:25Z,42.805,6.029,13.3036,4.60109,2470.717,2023-12-21T05:05:55Z
2023-12-21T03:06:28Z,42.805,6.029,13.3034,4.60107,2470.67,2023-12-21T05:08:58Z
2023-12-21T03:09:31Z,42.805,6.029,13.3031,4.60110,2470.646,2023-12-21T05:12:01Z
2023-12-21T03:12:34Z,42.805,6.029,13.3031,4.60107,2470.684,2023-12-21T05:15:05Z
2023-12-21T03:15:37Z,42.805,6.029,13.3034,4.60107,2470.661,2023-12-21T05:18:08Z
2023-12-21T03:18:40Z,42.805,6.029,13.3034,4.60109,2470.67,2023-12-21T05:21:11Z
2023-12-21T03:21:44Z,42.805,6.029,13.3029,4.60110,2470.67,2023-12-21T05:24:14Z
2023-12-21T03:24:47Z,42.805,6.029,13.3029,4.60108,2470.684,2023-12-21T05:27:17Z
2023-12-21T03:27:50Z,42.805,6.029,13.3033,4.60112,2470.656,2023-12-21T05:30:20Z
2023-12-21T03:30:53Z,42.805,6.029,13.3028,4.60109,2470.67,2023-12-21T05:33:23Z
2023-12-21T03:33:56Z,42.805,6.029,13.3034,4.60108,2470.67,2023-12-21T05:36:26Z
2023-12-21T03:36:59Z,42.805,6.029,13.3030,4.60110,2470.646,2023-12-21T05:39:29Z
2023-12-21T03:40:02Z,42.805,6.029,13.3033,4.60106,2470.646,2023-12-21T05:42:32Z
2023-12-21T03:43:05Z,42.805,6.029,13.3034,4.60108,2470.661,2023-12-21T05:45:35Z
2023-12-21T03:46:08Z,42.805,6.029,13.3031,4.60108,2470.67,2023-12-21T05:48:38Z
2023-12-21T03:49:11Z,42.805,6.029,13.3033,4.60107,2470.646,2023-12-21T05:51:42Z
2023-12-21T03:52:14Z,42.805,6.029,13.3034,4.60108,2470.646,2023-12-21T05:54:45Z
2023-12-21T03:55:17Z,42.805,6.029,13.3036,4.60107,2470.67,2023-12-21T05:57:48Z
2023-12-21T03:58:20Z,42.805,6.029,13.3031,4.60107,2470.637,2023-12-21T06:00:51Z
2023-12-21T04:01:24Z,42.805,6.029,13.3035,4.60109,2470.67,2023-12-21T06:03:54Z
2023-12-21T04:04:27Z,42.805,6.029,13.3032,4.60107,2470.646,2023-12-21T06:06:57Z
2023-12-21T04:07:30Z,42.805,6.029,13.3030,4.60107,2470.684,2023-12-21T06:10:00Z
2023-12-21T04:10:33Z,42.805,6.029,13.3029,4.60110,2470.67,2023-12-21T06:13:03Z
2023-12-21T04:13:36Z,42.805,6.029,13.3029,4.60108,2470.661,2023-12-21T06:16:06Z
2023-12-21T04:16:39Z,42.805,6.029,13.3034,4.60109,2470.67,2023-12-21T06:19:09Z
2023-12-21T04:19:42Z,42.805,6.029,13.3034,4.60112,2470.67,2023-12-21T06:22:12Z
2023-12-21T04:22:45Z,42.805,6.029,13.3033,4.60108,2470.67,2023-12-21T06:25:15Z
2023-12-21T04:25:48Z,42.805,6.029,13.3034,4.60109,2470.684,2023-12-21T06:28:18Z
2023-12-21T04:28:51Z,42.805,6.029,13.3033,4.60107,2470.693,2023-12-21T06:31:22Z
2023-12-21T04:31:54Z,42.805,6.029,13.3036,4.60108,2470.684,2023-12-21T06:34:25Z
2023-12-21T04:34:57Z,42.805,6.029,13.3033,4.60107,2470.67,2023-12-21T06:37:28Z
2023-12-21T04:38:01Z,42.805,6.029,13.3034,4.60107,2470.73,2023-12-21T06:40:31Z
2023-12-21T04:41:04Z,42.805,6.029,13.3035,4.60110,2470.646,2023-12-21T06:43:34Z
2023-12-21T04:44:07Z,42.805,6.029,13.3036,4.60112,2470.67,2023-12-21T06:46:37Z
2023-12-21T04:47:10Z,42.805,6.029,13.3035,4.60108,2470.646,2023-12-21T06:49:40Z
2023-12-21T04:50:13Z,42.805,6.029,13.3034,4.60110,2470.633,2023-12-21T06:52:43Z
2023-12-21T04:53:16Z,42.805,6.029,13.3035,4.60109,2470.684,2023-12-21T06:55:46Z
2023-12-21T04:56:19Z,42.805,6.029,13.3041,4.60119,2470.624,2023-12-21T06:58:49Z
2023-12-21T04:59:22Z,42.805,6.029,13.3047,4.60128,2470.646,2023-12-21T07:01:52Z
2023-12-21T05:02:25Z,42.805,6.029,13.3034,4.60111,2470.646,2023-12-21T07:04:56Z
2023-12-21T05:05:28Z,42.805,6.029,13.3036,4.60109,2470.67,2023-12-21T07:07:59Z
2023-12-21T05:08:31Z,42.805,6.029,13.3031,4.60110,2470.646,2023-12-21T07:11:02Z
2023-12-21T05:11:34Z,42.805,6.029,13.3040,4.60112,2470.646,2023-12-21T07:14:05Z
2023-12-21T05:14:38Z,42.805,6.029,13.3041,4.60113,2470.646,2023-12-21T07:17:08Z
2023-12-21T05:17:41Z,42.805,6.029,13.3033,4.60110,2470.637,2023-12-21T07:20:11Z
2023-12-21T05:20:44Z,42.805,6.029,13.3057,4.60119,2470.646,2023-12-21T07:23:14Z
2023-12-21T05:23:47Z,42.805,6.029,13.3034,4.60113,2470.637,2023-12-21T07:26:17Z
2023-12-21T05:26:50Z,42.805,6.029,13.3047,4.60129,2470.624,2023-12-21T07:29:20Z
2023-12-21T05:29:53Z,42.805,6.029,13.3052,4.60126,2470.624,2023-12-21T07:32:23Z
2023-12-21T05:32:56Z,42.805,6.029,13.3048,4.60141,2470.646,2023-12-21T07:35:26Z
2023-12-21T05:35:59Z,42.805,6.029,13.3039,4.60125,2470.633,2023-12-21T07:38:29Z
2023-12-21T05:39:02Z,42.805,6.029,13.3041,4.60114,2470.624,2023-12-21T07:41:32Z
2023-12-21T05:42:05Z,42.805,6.029,13.3040,4.60142,2470.646,2023-12-21T07:44:36Z
2023-12-21T05:45:08Z,42.805,6.029,13.3054,4.60128,2470.646,2023-12-21T07:47:39Z
2023-12-21T05:48:11Z,42.805,6.029,13.3048,4.60131,2470.614,2023-12-21T07:50:42Z
2023-12-21T05:51:15Z,42.805,6.029,13.3050,4.60128,2470.646,2023-12-21T07:53:45Z
2023-12-21T05:54:18Z,42.805,6.029,13.3045,4.60129,2470.637,2023-12-21T07:56:48Z
2023-12-21T05:57:21Z,42.805,6.029,13.3050,4.60129,2470.646,2023-12-21T07:59:51Z
2023-12-21T06:00:24Z,42.805,6.029,13.3046,4.60163,2470.67,2023-12-21T08:02:54Z
2023-12-21T06:03:27Z,42.805,6.029,13.3048,4.60152,2470.646,2023-12-21T08:05:57Z
2023-12-21T06:06:30Z,42.805,6.029,13.3045,4.60144,2470.624,2023-12-21T08:09:00Z
2023-12-21T06:09:33Z,42.805,6.029,13.3043,4.60147,2470.646,2023-12-21T08:12:03Z
2023-12-21T06:12:36Z,42.805,6.029,13.3052,4.60149,2470.661,2023-12-21T08:15:06Z
2023-12-21T06:15:39Z,42.805,6.029,13.3044,4.60138,2470.6,2023-12-21T08:18:09Z
2023-12-21T06:18:42Z,42.805,6.029,13.3043,4.60140,2470.624,2023-12-21T08:21:13Z
2023-12-21T06:21:45Z,42.805,6.029,13.3043,4.60150,2470.633,2023-12-21T08:24:16Z
2023-12-21T06:24:48Z,42.805,6.029,13.3049,4.60157,2470.624,2023-12-21T08:27:19Z
2023-12-21T06:27:51Z,42.805,6.029,13.3058,4.60155,2470.586,2023-12-21T08:30:22Z
2023-12-21T06:30:55Z,42.805,6.029,13.3046,4.60142,2470.61,2023-12-21T08:33:25Z
2023-12-21T06:33:58Z,42.805,6.029,13.3050,4.60140,2470.624,2023-12-21T08:36:28Z
2023-12-21T06:37:01Z,42.805,6.029,13.3043,4.60143,2470.661,2023-12-21T08:39:31Z
2023-12-21T06:40:04Z,42.805,6.029,13.3046,4.60122,2470.6,2023-12-21T08:42:34Z
2023-12-21T06:43:07Z,42.805,6.029,13.3048,4.60148,2470.661,2023-12-21T08:45:37Z
2023-12-21T06:46:10Z,42.805,6.029,13.3044,4.60144,2470.637,2023-12-21T08:48:40Z
2023-12-21T06:49:13Z,42.805,6.029,13.3043,4.60147,2470.637,2023-12-21T08:51:43Z
2023-12-21T06:52:16Z,42.805,6.029,13.3046,4.60155,2470.6,2023-12-21T08:54:46Z
2023-12-21T06:55:19Z,42.805,6.029,13.3050,4.60155,2470.6,2023-12-21T08:57:49Z
2023-12-21T06:58:22Z,42.805,6.029,13.3045,4.60164,2470.646,2023-12-21T09:00:53Z
2023-12-21T07:01:25Z,42.805,6.029,13.3049,4.60157,2470.624,2023-12-21T09:03:56Z
2023-12-21T07:04:28Z,42.805,6.029,13.3046,4.60147,2470.646,2023-12-21T09:06:59Z
2023-12-21T07:07:31Z,42.805,6.029,13.3054,4.60141,2470.6,2023-12-21T09:10:02Z
2023-12-21T07:10:35Z,42.805,6.029,13.3048,4.60152,2470.6,2023-12-21T09:13:05Z
2023-12-21T07:13:38Z,42.805,6.029,13.3049,4.60144,2470.614,2023-12-21T09:16:08Z
2023-12-21T07:16:41Z,42.805,6.029,13.3048,4.60147,2470.646,2023-12-21T09:19:11Z
2023-12-21T07:19:44Z,42.805,6.029,13.3050,4.60140,2470.646,2023-12-21T09:22:14Z
2023-12-21T07:22:47Z,42.805,6.029,13.3047,4.60144,2470.624,2023-12-21T09:25:17Z
2023-12-21T07:25:50Z,42.805,6.029,13.3044,4.60137,2470.614,2023-12-21T09:28:20Z
2023-12-21T07:28:53Z,42.805,6.029,13.3046,4.60132,2470.624,2023-12-21T09:31:23Z
2023-12-21T07:31:55Z,42.805,6.029,13.3044,4.60144,2470.624,2023-12-21T09:34:25Z
2023-12-21T07:34:58Z,42.805,6.029,13.3044,4.60144,2470.624,2023-12-21T09:37:28Z
2023-12-21T07:38:01Z,42.805,6.029,13.3046,4.60130,2470.624,2023-12-21T09:40:31Z
2023-12-21T07:41:04Z,42.805,6.029,13.3051,4.60138,2470.6,2023-12-21T09:43:34Z
2023-12-21T07:44:07Z,42.805,6.029,13.3041,4.60129,2470.637,2023-12-21T09:46:37Z
2023-12-21T07:47:10Z,42.805,6.029,13.3046,4.60140,2470.591,2023-12-21T09:49:40Z
2023-12-21T07:50:13Z,42.805,6.029,13.3046,4.60129,2470.624,2023-12-21T09:52:44Z
2023-12-21T07:53:16Z,42.805,6.029,13.3054,4.60140,2470.6,2023-12-21T09:55:47Z
2023-12-21T07:56:19Z,42.805,6.029,13.3045,4.60158,2470.637,2023-12-21T09:58:50Z
2023-12-21T07:59:22Z,42.805,6.029,13.3051,4.60155,2470.624,2023-12-21T10:01:53Z
2023-12-21T08:02:26Z,42.805,6.029,13.3054,4.60150,2470.624,2023-12-21T10:04:56Z
2023-12-21T08:05:29Z,42.805,6.029,13.3046,4.60147,2470.6,2023-12-21T10:07:59Z
2023-12-21T08:08:32Z,42.805,6.029,13.3044,4.60167,2470.61,2023-12-21T10:11:02Z
2023-12-21T08:11:35Z,42.805,6.029,13.3045,4.60148,2470.624,2023-12-21T10:14:05Z
2023-12-21T08:14:38Z,42.805,6.029,13.3046,4.60142,2470.624,2023-12-21T10:17:08Z
2023-12-21T08:17:41Z,42.805,6.029,13.3040,4.60140,2470.6,2023-12-21T10:20:11Z
2023-12-21T08:20:44Z,42.805,6.029,13.3044,4.60152,2470.624,2023-12-21T10:23:14Z
2023-12-21T08:23:47Z,42.805,6.029,13.3044,4.60170,2470.624,2023-12-21T10:26:17Z
2023-12-21T08:26:50Z,42.805,6.029,13.3044,4.60154,2470.6,2023-12-21T10:29:20Z
2023-12-21T08:29:53Z,42.805,6.029,13.3043,4.60149,2470.6,2023-12-21T10:32:24Z
2023-12-21T08:32:56Z,42.805,6.029,13.3058,4.60137,2470.586,2023-12-21T10:35:27Z
2023-12-21T08:35:59Z,42.805,6.029,13.3046,4.60149,2470.637,2023-12-21T10:38:30Z
2023-12-21T08:39:03Z,42.805,6.029,13.3050,4.60151,2470.6,2023-12-21T10:41:33Z
2023-12-21T08:42:06Z,42.805,6.029,13.3061,4.60168,2470.6,2023-12-21T10:44:36Z
2023-12-21T08:45:09Z,42.805,6.029,13.3056,4.60163,2470.614,2023-12-21T10:47:39Z
2023-12-21T08:48:12Z,42.805,6.029,13.3048,4.60175,2470.6,2023-12-21T10:50:42Z
2023-12-21T08:51:15Z,42.805,6.029,13.3041,4.60147,2470.624,2023-12-21T10:53:45Z
2023-12-21T08:54:18Z,42.805,6.029,13.3056,4.60162,2470.624,2023-12-21T10:56:48Z
2023-12-21T08:57:21Z,42.805,6.029,13.3043,4.60157,2470.661,2023-12-21T10:59:51Z
2023-12-21T09:00:24Z,42.805,6.029,13.3044,4.60155,2470.624,2023-12-21T11:02:54Z
2023-12-21T09:03:27Z,42.805,6.029,13.3045,4.60166,2470.614,2023-12-21T11:05:58Z
2023-12-21T09:06:30Z,42.805,6.029,13.3043,4.60151,2470.624,2023-12-21T11:09:01Z
2023-12-21T09:09:33Z,42.805,6.029,13.3041,4.60158,2470.661,2023-12-21T11:12:04Z
2023-12-21T09:12:37Z,42.805,6.029,13.3043,4.60163,2470.624,2023-12-21T11:15:07Z
2023-12-21T09:15:40Z,42.805,6.029,13.3054,4.60157,2470.614,2023-12-21T11:18:10Z
2023-12-21T09:18:43Z,42.805,6.029,13.3045,4.60151,2470.637,2023-12-21T11:21:13Z
2023-12-21T09:21:46Z,42.805,6.029,13.3044,4.60150,2470.661,2023-12-21T11:24:16Z
2023-12-21T09:24:49Z,42.805,6.029,13.3061,4.60182,2470.624,2023-12-21T11:27:19Z
2023-12-21T09:27:52Z,42.805,6.029,13.3066,4.60182,2470.624,2023-12-21T11:30:22Z
2023-12-21T09:30:54Z,42.805,6.029,13.3051,4.60193,2470.624,2023-12-21T11:33:24Z
2023-12-21T09:33:57Z,42.805,6.029,13.3051,4.60187,2470.637,2023-12-21T11:36:27Z
2023-12-21T09:37:00Z,42.805,6.029,13.3041,4.60155,2470.624,2023-12-21T11:39:30Z
2023-12-21T09:40:03Z,42.805,6.029,13.3039,4.60184,2470.624,2023-12-21T11:42:33Z
2023-12-21T09:43:06Z,42.805,6.029,13.3046,4.60180,2470.646,2023-12-21T11:45:37Z
2023-12-21T09:46:09Z,42.805,6.029,13.3072,4.60185,2470.614,2023-12-21T11:48:40Z
2023-12-21T09:49:12Z,42.805,6.029,13.3061,4.60152,2470.646,2023-12-21T11:51:43Z
2023-12-21T09:52:16Z,42.805,6.029,13.3061,4.60165,2470.67,2023-12-21T11:54:46Z
2023-12-21T09:55:19Z,42.805,6.029,13.3060,4.60178,2470.624,2023-12-21T11:57:49Z
2023-12-21T09:58:22Z,42.805,6.029,13.3061,4.60194,2470.624,2023-12-21T12:00:52Z
2023-12-21T10:01:25Z,42.805,6.029,13.3052,4.60180,2470.624,2023-12-21T12:03:55Z
2023-12-21T10:04:28Z,42.805,6.029,13.3055,4.60184,2470.624,2023-12-21T12:06:58Z
2023-12-21T10:07:31Z,42.805,6.029,13.3046,4.60195,2470.67,2023-12-21T12:10:01Z
2023-12-21T10:10:34Z,42.805,6.029,13.3058,4.60194,2470.67,2023-12-21T12:13:04Z
2023-12-21T10:13:37Z,42.805,6.029,13.3046,4.60175,2470.646,2023-12-21T12:16:07Z
2023-12-21T10:16:40Z,42.805,6.029,13.3056,4.60155,2470.637,2023-12-21T12:19:10Z
2023-12-21T10:19:43Z,42.805,6.029,13.3062,4.60178,2470.661,2023-12-21T12:22:14Z
2023-12-21T10:22:46Z,42.805,6.029,13.3067,4.60203,2470.6,2023-12-21T12:25:17Z
2023-12-21T10:25:49Z,42.805,6.029,13.3058,4.60163,2470.646,2023-12-21T12:28:20Z
2023-12-21T10:28:53Z,42.805,6.029,13.3056,4.60160,2470.661,2023-12-21T12:31:23Z
2023-12-21T10:31:56Z,42.805,6.029,13.3046,4.60144,2470.624,2023-12-21T12:34:26Z
2023-12-21T10:34:59Z,42.805,6.029,13.3056,4.60161,2470.637,2023-12-21T12:37:29Z
2023-12-21T10:38:02Z,42.805,6.029,13.3046,4.60147,2470.67,2023-12-21T12:40:32Z
2023-12-21T10:41:05Z,42.805,6.029,13.3043,4.60160,2470.661,2023-12-21T12:43:35Z
2023-12-21T10:44:08Z,42.805,6.029,13.3073,4.60198,2470.67,2023-12-21T12:46:38Z
2023-12-21T10:47:11Z,42.805,6.029,13.3061,4.60196,2470.684,2023-12-21T12:49:41Z
2023-12-21T10:50:14Z,42.805,6.029,13.3047,4.60198,2470.661,2023-12-21T12:52:44Z
2023-12-21T10:53:17Z,42.805,6.029,13.3059,4.60178,2470.67,2023-12-21T12:55:47Z
2023-12-21T10:56:20Z,42.805,6.029,13.3056,4.60188,2470.646,2023-12-21T12:58:51Z
2023-12-21T10:59:23Z,42.805,6.029,13.3062,4.60165,2470.661,2023-12-21T13:01:54Z
2023-12-21T11:02:26Z,42.805,6.029,13.3044,4.60175,2470.67,2023-12-21T13:04:57Z
2023-12-21T11:05:30Z,42.805,6.029,13.3046,4.60141,2470.707,2023-12-21T13:08:00Z
2023-12-21T11:08:33Z,42.805,6.029,13.3039,4.60168,2470.67,2023-12-21T13:11:03Z
2023-12-21T11:11:36Z,42.805,6.029,13.3047,4.60165,2470.646,2023-12-21T13:14:06Z
2023-12-21T11:14:39Z,42.805,6.029,13.3050,4.60155,2470.656,2023-12-21T13:17:09Z
2023-12-21T11:17:42Z,42.805,6.029,13.3048,4.60155,2470.693,2023-12-21T13:20:12Z
2023-12-21T11:20:45Z,42.805,6.029,13.3048,4.60165,2470.707,2023-12-21T13:23:15Z
2023-12-21T11:23:48Z,42.805,6.029,13.3063,4.60183,2470.707,2023-12-21T13:26:18Z
2023-12-21T11:26:51Z,42.805,6.029,13.3057,4.60198,2470.661,2023-12-21T13:29:21Z
2023-12-21T11:29:54Z,42.805,6.029,13.3047,4.60157,2470.717,2023-12-21T13:32:25Z
2023-12-21T11:32:57Z,42.805,6.029,13.3051,4.60170,2470.707,2023-12-21T13:35:28Z
2023-12-21T11:36:00Z,42.805,6.029,13.3063,4.60173,2470.693,2023-12-21T13:38:31Z
2023-12-21T11:39:04Z,42.805,6.029,13.3063,4.60172,2470.693,2023-12-21T13:41:34Z
2023-12-21T11:42:07Z,42.805,6.029,13.3056,4.60199,2470.717,2023-12-21T13:44:37Z
2023-12-21T11:45:10Z,42.805,6.029,13.3054,4.60180,2470.693,2023-12-21T13:47:40Z
2023-12-21T11:48:13Z,42.805,6.029,13.3062,4.60176,2470.73,2023-12-21T13:50:43Z
2023-12-21T11:51:16Z,42.805,6.029,13.3052,4.60196,2470.693,2023-12-21T13:53:46Z
2023-12-21T11:54:19Z,42.805,6.029,13.3043,4.60198,2470.693,2023-12-21T13:56:49Z
2023-12-21T11:57:22Z,42.805,6.029,13.3059,4.60175,2470.693,2023-12-21T13:59:52Z
2023-12-21T12:00:25Z,42.805,6.029,13.3047,4.60169,2470.717,2023-12-21T14:02:55Z
2023-12-21T12:03:28Z,42.805,6.029,13.3046,4.60161,2470.73,2023-12-21T14:05:58Z
2023-12-21T12:06:31Z,42.805,6.029,13.3044,4.60151,2470.73,2023-12-21T14:09:02Z
2023-12-21T12:09:34Z,42.805,6.029,13.3046,4.60157,2470.73,2023-12-21T14:12:05Z
2023-12-21T12:12:37Z,42.805,6.029,13.3050,4.60170,2470.74,2023-12-21T14:15:08Z
2023-12-21T12:15:41Z,42.805,6.029,13.3046,4.60169,2470.707,2023-12-21T14:18:11Z
2023-12-21T12:18:44Z,42.805,6.029,13.3048,4.60173,2470.693,2023-12-21T14:21:14Z
2023-12-21T12:21:47Z,42.805,6.029,13.3047,4.60181,2470.707,2023-12-21T14:24:17Z
2023-12-21T12:24:50Z,42.805,6.029,13.3046,4.60175,2470.707,2023-12-21T14:27:20Z
2023-12-21T12:27:53Z,42.805,6.029,13.3045,4.60162,2470.693,2023-12-21T14:30:23Z
2023-12-21T12:30:56Z,42.805,6.029,13.3054,4.60185,2470.717,2023-12-21T14:33:26Z
2023-12-21T12:33:59Z,42.805,6.029,13.3060,4.60142,2470.73,2023-12-21T14:36:29Z
2023-12-21T12:37:02Z,42.805,6.029,13.3076,4.60150,2470.73,2023-12-21T14:39:32Z
2023-12-21T12:40:05Z,42.805,6.029,13.3048,4.60199,2470.73,2023-12-21T14:42:36Z
2023-12-21T12:43:08Z,42.805,6.029,13.3052,4.60197,2470.717,2023-12-21T14:45:39Z
2023-12-21T12:46:11Z,42.805,6.029,13.3048,4.60190,2470.717,2023-12-21T14:48:42Z
2023-12-21T12:49:15Z,42.805,6.029,13.3052,4.60179,2470.707,2023-12-21T14:51:45Z
2023-12-21T12:52:18Z,42.805,6.029,13.3056,4.60171,2470.73,2023-12-21T14:54:48Z
2023-12-21T12:55:21Z,42.805,6.029,13.3050,4.60193,2470.73,2023-12-21T14:57:51Z
2023-12-21T12:58:24Z,42.805,6.029,13.3054,4.60174,2470.73,2023-12-21T15:00:54Z
2023-12-21T13:01:27Z,42.805,6.029,13.3064,4.60222,2470.707,2023-12-21T15:03:57Z
2023-12-21T13:04:30Z,42.805,6.029,13.3061,4.60213,2470.717,2023-12-21T15:07:00Z
2023-12-21T13:07:33Z,42.805,6.029,13.3070,4.60170,2470.717,2023-12-21T15:10:03Z
2023-12-21T13:10:36Z,42.805,6.029,13.3078,4.60196,2470.717,2023-12-21T15:13:06Z
2023-12-21T13:13:39Z,42.805,6.029,13.3082,4.60143,2470.717,2023-12-21T15:16:09Z
2023-12-21T13:16:42Z,42.805,6.029,13.3067,4.60210,2470.73,2023-12-21T15:19:13Z
2023-12-21T13:19:45Z,42.805,6.029,13.3076,4.60157,2470.73,2023-12-21T15:22:16Z
2023-12-21T13:22:48Z,42.805,6.029,13.3070,4.60173,2470.73,2023-12-21T15:25:19Z
2023-12-21T13:25:52Z,42.805,6.029,13.3091,4.60193,2470.73,2023-12-21T15:28:22Z
2023-12-21T13:28:55Z,42.805,6.029,13.3114,4.60172,2470.73,2023-12-21T15:31:25Z
2023-12-21T13:31:58Z,42.805,6.029,13.3064,4.60191,2470.75,2023-12-21T15:34:28Z
2023-12-21T13:35:01Z,42.805,6.029,13.3058,4.60220,2470.754,2023-12-21T15:37:31Z
2023-12-21T13:38:04Z,42.805,6.029,13.3059,4.60193,2470.717,2023-12-21T15:40:34Z
2023-12-21T13:41:07Z,42.805,6.029,13.3079,4.60188,2470.754,2023-12-21T15:43:37Z
2023-12-21T13:44:10Z,42.805,6.029,13.3066,4.60181,2470.73,2023-12-21T15:46:40Z
2023-12-21T13:47:13Z,42.805,6.029,13.3070,4.60247,2470.754,2023-12-21T15:49:43Z
2023-12-21T13:50:16Z,42.805,6.029,13.3074,4.60200,2470.754,2023-12-21T15:52:47Z
2023-12-21T13:53:19Z,42.805,6.029,13.3057,4.60193,2470.754,2023-12-21T15:55:50Z
2023-12-21T13:56:22Z,42.805,6.029,13.3069,4.60173,2470.74,2023-12-21T15:58:53Z
2023-12-21T13:59:25Z,42.805,6.029,13.3069,4.60157,2470.763,2023-12-21T16:01:56Z
2023-12-21T14:02:29Z,42.805,6.029,13.3058,4.60147,2470.717,2023-12-21T16:04:59Z
2023-12-21T14:05:32Z,42.805,6.029,13.3082,4.60137,2470.754,2023-12-21T16:08:02Z
2023-12-21T14:08:35Z,42.805,6.029,13.3075,4.60190,2470.73,2023-12-21T16:11:05Z
2023-12-21T14:11:38Z,42.805,6.029,13.3058,4.60198,2470.74,2023-12-21T16:14:08Z
2023-12-21T14:14:41Z,42.805,6.029,13.3073,4.60191,2470.717,2023-12-21T16:17:11Z
2023-12-21T14:17:44Z,42.805,6.029,13.3091,4.60179,2470.74,2023-12-21T16:20:14Z
2023-12-21T14:20:47Z,42.805,6.029,13.3084,4.60156,2470.707,2023-12-21T16:23:17Z
2023-12-21T14:23:50Z,42.805,6.029,13.3085,4.60161,2470.763,2023-12-21T16:26:20Z
2023-12-21T14:26:53Z,42.805,6.029,13.3080,4.60175,2470.777,2023-12-21T16:29:24Z
2023-12-21T14:29:56Z,42.805,6.029,13.3078,4.60180,2470.73,2023-12-21T16:32:27Z
2023-12-21T14:32:59Z,42.805,6.029,13.3113,4.60170,2470.763,2023-12-21T16:35:30Z
2023-12-21T14:36:02Z,42.805,6.029,13.3110,4.60128,2470.763,2023-12-21T16:38:33Z
2023-12-21T14:39:06Z,42.805,6.029,13.3096,4.60137,2470.754,2023-12-21T16:41:36Z
2023-12-21T14:42:09Z,42.805,6.029,13.3057,4.60193,2470.754,2023-12-21T16:44:39Z
2023-12-21T14:45:12Z,42.805,6.029,13.3067,4.60158,2470.787,2023-12-21T16:47:42Z
2023-12-21T14:48:15Z,42.805,6.029,13.3068,4.60162,2470.787,2023-12-21T16:50:45Z
2023-12-21T14:51:18Z,42.805,6.029,13.3063,4.60182,2470.8,2023-12-21T16:53:48Z
2023-12-21T14:54:21Z,42.805,6.029,13.3080,4.60190,2470.717,2023-12-21T16:56:51Z
2023-12-21T14:57:24Z,42.805,6.029,13.3086,4.60182,2470.754,2023-12-21T16:59:54Z
2023-12-21T15:00:27Z,42.805,6.029,13.3086,4.60193,2470.754,2023-12-21T17:02:57Z